Location: Bakov nad Jizerou
(50.4784°N, 14.9394°E)
Time: 03:55:21
(UTC+00:00)

Cosmos 1727 Rocket - Pass Details

Date: 30 October 2021
Orbit: 960 x 997 km, 82.9° (Epoch: 07 December)

Event Time Altitude Azimuth Distance (km) Brightness Sun altitude
Rises 02:58:39 0° 139° (SE) 3,690 7.4 -27.3°
Reaches altitude 10° 03:01:52 10° 123° (ESE) 2,741 6.9 -26.8°
Maximum altitude 03:06:09 20° 79° (E) 2,122 6.6 -26.1°
Drops below altitude 10° 03:10:25 10° 36° (NE) 2,736 6.9 -25.4°
Sets 03:13:36 0° 20° (NNE) 3,682 7.4 -24.9°
